Wind_Speed
8 8 8 9 10 9 9 10 11 10 11 11 9 10 11 11 8 8 9 8 8 7 7 9 9 7 7 6 6 6 6 8 7
8 10 11 11 10 11 11 11 11 9 11 14 11 11 14 14 12 11 10 11 13 9 9 10 9 9 9 8 8 7 7 8 9
11 11 11 12 12 13 13 12 12 12 13 15 15 14 16 16 15 14 12 13 15 12 12 12 11 11 10 10 9 9 8 8 9
11 12 13 13 14 14 15 15 15 15 15 16 16 17 18 17 17 17 15 17 17 15 14 14 14 13 12 12 11 10 10 10 9
12 12 11 12 14 15 15 16 17 17 17 18 18 18 20 21 20 21 20 21 19 18 16 17 16 15 15 14 13 12 11 11 11
10 12 14 15 15 15 16 17 17 17 19 19 19 19 19 21 22 20 22 26 23 22 20 19 19 18 17 16 15 14 14 13 12
14 13 15 15 15 16 16 16 18 17 16 17 16 15 19 21 25 22 22 25 25 24 23 22 24 21 20 19 18 17 17 16 15
11 11 12 12 14 12 13 14 14 15 16 17 19 19 20 22 23 23 25 29 26 26 25 26 26 27 23 22 21 20 19 19 18
10 10 12 12 12 14 14 15 16 17 18 20 21 22 22 22 23 24 26 29 29 29 27 27 28 27 28 24 24 23 23 22 21
10 10 10 11 13 13 15 16 17 19 20 21 22 22 24 26 26 25 25 29 30 32 31 29 29 29 28 27 27 26 26 25 24
9 10 11 11 12 13 15 16 17 19 20 23 23 25 25 26 27 28 27 28 31 32 34 32 32 31 30 30 29 29 29 28 26
11 10 11 11 13 14 15 16 16 18 20 22 24 26 28 30 29 28 28 27 30 32 34 37 36 36 34 32 32 31 30 31 29
12 11 11 13 13 13 14 16 17 19 20 22 23 24 26 28 31 32 30 29 28 26 30 37 40 40 39 35 34 33 34 32 30
12 11 11 13 12 12 14 16 17 20 22 24 24 25 26 28 29 32 34 31 30 29 26 31 37 41 42 38 36 35 35 34 33
12 11 12 12 12 12 14 15 17 19 21 23 26 27 28 29 30 31 32 32 30 29 28 26 30 38 43 42 38 36 34 34 32
13 13 12 12 12 14 15 15 17 19 19 22 24 25 26 28 30 32 32 31 30 29 29 29 30 32 36 44 41 34 33 35 39
12 13 12 14 14 15 16 16 16 15 16 18 22 11 18 23 25 28 30 30 28 28 26 25 29 32 31 36 38 42 40 40 39
12 13 13 13 13 14 15 16 15 14 16 17 11 7 10 12 26 30 29 23 20 24 26 26 26 29 30 33 33 40 37 37 38
11 12 12 12 11 12 13 14 15 15 15 16 13 17 22 6 7 37 30 11 11 15 12 18 19 28 22 23 29 30 31 37 35
11 12 12 12 12 12 13 13 13 13 13 15 17 15 16 10 4 4 12 20 23 24 21 16 10 15 25 23 26 9 19 20 23
Wind_Direction
294 288 287 290 284 284 282 279 277 270 243 239 239 221 234 225 233 243 247 240 244 234 232 223 221 231 222 222 216 214 209 193 182
291 287 290 290 288 285 285 283 279 269 250 243 247 234 224 230 242 251 250 242 243 231 230 239 237 231 223 218 220 219 218 215 204
291 288 289 290 290 291 290 285 279 271 260 252 249 249 240 239 239 244 247 239 242 234 233 233 236 234 231 227 222 222 218 216 215
294 292 293 290 288 286 286 286 285 279 270 263 258 254 255 244 246 244 243 245 240 239 236 237 234 233 235 235 231 228 222 218 216
306 305 298 293 285 283 283 283 283 282 280 273 265 257 258 251 249 247 238 242 243 240 232 235 238 234 233 233 234 234 233 228 223
306 293 292 291 291 287 283 280 279 280 280 278 271 260 253 250 245 246 250 245 247 242 237 233 234 235 235 233 232 231 232 231 230
305 303 297 297 292 287 287 285 279 280 271 269 268 263 253 250 246 243 249 252 247 245 241 235 237 236 232 234 233 232 229 229 230
309 306 305 302 302 300 296 291 286 279 273 267 262 261 258 256 251 247 247 252 251 244 242 242 237 240 241 233 232 233 231 229 229
321 313 309 307 305 302 298 294 289 283 278 276 272 265 260 257 254 255 251 253 250 246 240 241 242 241 238 235 232 234 234 231 230
332 325 320 313 310 306 300 295 291 287 282 277 274 274 268 263 258 254 253 256 255 247 243 236 239 241 240 235 233 232 236 237 232
332 327 324 321 317 311 303 298 295 290 286 281 275 270 269 266 262 259 256 254 256 250 246 238 236 237 238 238 235 233 232 236 236
343 333 329 326 323 318 313 307 302 296 290 284 279 275 270 266 262 256 255 254 254 252 247 245 238 238 235 236 235 234 236 235 236
346 340 336 331 327 323 321 317 311 302 295 290 286 282 276 271 267 261 252 248 248 254 251 245 243 240 237 234 235 233 234 236 236
349 340 335 334 332 332 328 320 318 310 298 291 288 282 278 276 269 263 258 249 242 242 248 249 244 241 239 234 235 235 237 237 237
354 342 341 341 338 337 336 329 322 313 306 298 291 287 281 276 270 267 258 254 243 242 242 244 250 244 239 238 235 235 237 237 239
8 6 358 353 347 344 344 338 331 319 319 310 297 292 288 282 273 265 258 250 244 243 236 239 244 252 245 238 239 236 236 239 241
10 4 357 359 356 354 347 340 334 319 319 309 307 300 300 291 283 267 258 247 239 239 236 241 245 243 246 242 235 244 237 236 237
6 5 4 0 357 349 346 345 337 323 319 323 304 314 302 320 309 311 269 244 247 245 248 244 241 249 242 240 242 238 241 239 235
8 6 5 2 355 349 348 347 348 340 334 341 330 318 314 312 321 337 283 253 242 244 253 263 251 240 251 258 246 243 241 243 242
6 6 3 359 353 348 345 344 351 355 349 350 340 340 333 357 301 309 335 350 59 68 70 75 73 74 60 66 60 214 245 246 249
Height
823 822 821 820 820 819 818 817 817 817 817 817 816 817 817 817 818 818 817 816 816 816 816 816 816 815 816 816 816 816 816 817 817
821 820 820 819 818 817 816 816 815 815 814 814 815 815 815 816 817 817 816 815 814 814 815 814 814 815 814 814 815 815 815 816 816
819 818 817 817 816 816 815 814 813 813 812 812 812 813 813 813 813 813 813 813 812 812 813 812 813 813 814 813 813 814 814 814 815
817 816 815 815 814 813 813 812 811 810 810 810 810 810 810 811 811 810 810 809 809 809 811 811 810 811 812 813 813 813 813 813 813
815 814 813 812 811 810 809 808 808 807 807 807 807 807 807 807 807 806 805 805 805 806 807 808 808 809 809 810 811 812 812 812 812
812 811 809 808 807 806 805 804 804 803 802 801 802 803 803 802 802 802 801 801 802 802 803 804 805 806 807 808 808 809 810 810 811
808 807 806 805 803 802 801 800 799 798 798 797 796 797 797 796 795 796 796 796 798 799 799 800 801 802 803 804 805 806 807 807 808
808 806 805 804 802 801 800 798 797 795 795 793 792 791 791 790 791 790 790 790 791 793 795 796 797 797 798 800 801 803 803 804 804
807 805 804 802 801 799 797 796 795 793 792 790 788 787 785 784 784 783 783 783 784 786 788 791 792 793 794 795 796 798 799 800 801
806 804 803 801 799 797 795 793 791 790 788 786 785 782 781 779 777 776 776 776 777 778 780 783 786 788 789 790 791 793 794 795 796
805 803 801 800 798 796 794 791 789 786 784 781 779 777 776 774 772 771 770 768 769 771 772 774 778 780 782 784 785 786 788 789 791
804 802 800 799 797 794 792 789 786 783 780 777 774 772 769 767 765 763 762 762 761 762 764 766 768 771 774 776 778 779 782 783 784
804 802 800 797 795 792 790 788 784 781 778 774 770 766 763 761 760 757 754 753 754 753 754 757 759 762 765 768 770 772 774 776 778
803 801 799 796 792 790 788 785 782 779 774 770 765 763 758 755 752 750 749 745 744 746 747 747 750 753 756 759 763 765 767 769 772
803 801 798 794 791 789 786 784 781 777 771 766 760 757 753 750 746 743 741 739 737 736 739 740 741 744 746 750 753 757 760 762 764
803 801 799 796 792 789 787 784 780 774 769 763 755 749 745 741 737 735 733 730 730 730 730 733 733 734 737 740 744 748 752 755 756
804 802 800 796 792 790 788 785 781 776 771 766 756 745 740 734 729 727 725 722 721 724 724 725 726 727 728 728 732 738 742 744 747
806 803 800 796 794 791 789 786 782 777 771 767 763 749 740 734 731 728 720 715 717 720 719 719 722 723 723 719 724 729 731 734 740
805 802 799 797 795 792 789 786 783 779 772 765 763 759 751 742 733 726 720 711 712 716 714 718 719 720 717 720 718 723 723 730 734
804 801 799 796 794 792 789 786 782 779 774 769 764 758 752 747 741 734 720 716 711 718 718 712 722 716 718 719 712 715 721 725 727